STARLINK-36548, 67617

Orbit data source: Space-Track

STARLINK-36548, 67617 is a payload satellite owned by SpaceX/Seattle (US) in LEO that was launched on Fri, 30 Jan 2026 UTC via an FALCON 9 launch vehicle from the Air Force Eastern Test Range (AFETR). Payload-class satellites include a variety of spacecraft equipped with specific instruments for various scientific and technological missions. These include communications satellites like Starlink; space stations such as the ISS; scientific satellites like the Hubble; Earth observation satellites from companies like Planet Labs, Umbra, and HawkEye 360; GPS; miniature CubeSats for education and research; and military/defense satellites.

Loading next visibility...
Identifier
67617, 2026-020A
Orbit
LEO
Country
Flag of USUS
Related business
Manufacturer
SpaceX/Seattle
Mission
Operational spacecraft
Bus & Motor
STARLINK V2MO, Unknown motor
Mass
575 kg wet, ~530 kg dry
Launch date (UTC)
2026-01-30 (2 months ago)
Launch vehicle
FALCON 9
Launch site
Air Force Eastern Test Range (AFETR)
Object type
Payload
Rocket body
Debris
Shape & HBR
Unknown shape, 17.7 m
Radar Cross Section
RCS unknown

Expand to show TLE details & history
Last TLE update: 4 hours ago

TLE from 4 hours ago
0 STARLINK-36548
1 67617U 26020A   26104.87143435  .00008155  00000-0  30547-3 0  9996
2 67617  42.9989 295.7597 0001460 265.8489  94.2196 15.27587509 11649
Epoch: 2026-04-14T20:54Z
TLE epoch observation values (Epoch: 2026-04-14T20:54:51.927Z)
Latitude
-0.00002°
Longitude
139.00185°
Altitude
482.876 km
Speed
7.626 km/s
True Right ascension
19h 43m 02s
True Declination
0° 00' 00"
Sunlit
Object was in daylight at epoch
Visualization orbit readout
Latitude
Unknown
Longitude
Unknown
Altitude
Unknown
Speed
Unknown
Apparent Right ascension
Unknown
Apparent Declination
Unknown
Sunlit
N/A
Visualization observer readout
Local Sidereal Time
07:13:48
Azimuth
Unknown
Elevation
Unknown
Doppler factor
Unknown
Orbital elements
Apogee altitude
485.974 km
Perigee altitude
483.97 km
Semi-major axis
6,863.109 km
Eccentricity
0.00015
Inclination
42.9989°
RAAN
295.7597°
Arg. of periapsis
265.8489°
True anomaly
94.23628°
Mean anomaly
94.2196°
Eccentric anomaly
94.22794°
Mean motion
3.81735 °/min
Orbital period
94.31 mins
BSTAR
0.00030547
Loading maneuver chart data...
Computing Atmospheric mass density...
Loading historical data...
Loading historical data...
Loading historical data...
Loading historical data...
Loading historical data...
Loading historical data...
Loading historical data...

Documentation

Showing up to 5 results
|